Regional Weather Roundup
Issued by NWS

Home | Current Version | Previous Version | Graphics & Text | Print | Product List | Glossary On
Versions: 1 2 3 4 5 6 7 8 9 10 11 12 13 14 15 16 17 18 19 20 21 22 23 24 25 26 27 28 29 30 31 32 33 34 35 36 37 38 39 40 41 42 43 44 45 46 47 48 49 50
000
ASUS43 KOAX 271502
RWRNE

WEATHER ROUNDUP FOR NEBRASKA
NATIONAL WEATHER SERVICE OMAHA NE
1000 AM CDT MON APR 27 2015

NOTES: SATELLITE DATA IS BEING USED TO AUGMENT CLOUD COVER ABOVE
       12000 FEET.
       "FAIR" INDICATES FEW OR NO CLOUDS BELOW 12,000 FEET WITH NO
       SIGNIFICANT WEATHER AND/OR OBSTRUCTIONS TO VISIBILITY.

  * THESE STATIONS DO NOT REPORT WEATHER SUCH AS RAIN...SNOW OR FOG.

NEZ001>004-019>022-054>056-271600-
NEBRASKA PANHANDLE

CITY           SKY/WX    TMP DP  RH WIND       PRES   REMARKS
SCOTTSBLUFF    CLOUDY    47  41  80 CALM      30.26R
ALLIANCE       CLOUDY    50  40  68 VRB5      30.24R
CHADRON        PTSUNNY   51  42  71 N3        30.26R
KIMBALL        CLOUDY    41  40  95 NE7       30.24R FOG
SIDNEY         CLOUDY    45  41  86 NE8       30.25R
$$

NEZ057>060-069>072-079>082-271600-
SOUTHWEST NEBRASKA

CITY           SKY/WX    TMP DP  RH WIND       PRES   REMARKS
IMPERIAL       MOSUNNY   50  38  63 E6        30.23R
MCCOOK         CLOUDY    52  38  58 NE8       30.21R
$$

NEZ005>010-023>029-035>040-094-271600-
NORTH CENTRAL NEBRASKA

CITY           SKY/WX    TMP DP  RH WIND       PRES   REMARKS
VALENTINE      SUNNY     55  41  59 NW6       30.24S
AINSWORTH      SUNNY     56  40  55 NW8       30.24R
BROKEN BOW     MOSUNNY   55  38  52 N10       30.21S
ORD            MOSUNNY   54  40  59 N3        30.21S
$$

NEZ041-046>049-061>064-073>077-083>087-271600-
SOUTH CENTRAL NEBRASKA

CITY           SKY/WX    TMP DP  RH WIND       PRES   REMARKS
GRAND ISLAND   PTSUNNY   52  39  61 NE7       30.21S
AURORA         PTSUNNY   54  39  56 NE9       30.20S
HASTINGS       CLOUDY    51  39  63 NE7       30.20R
HOLDREGE       CLOUDY    49  39  68 NE9       30.20R
KEARNEY *      CLOUDY    48  37  66 NE8       30.21R
$$

NEZ011>018-030>034-042>045-271600-
NORTHEAST NEBRASKA

CITY           SKY/WX    TMP DP  RH WIND       PRES   REMARKS
NORFOLK        SUNNY     56  35  45 CALM      30.22R
ALBION         SUNNY     55  37  51 CALM      30.22S
BLAIR          SUNNY     55  33  44 N5        30.21S
COLUMBUS *     SUNNY     55  36  47 E3        30.23S
FREMONT        SUNNY     56  38  49 N3        30.22S
TEKAMAH        SUNNY     58  35  42 NE6       30.22S
$$

NEZ050>053-065>068-078-088>093-271600-
SOUTHEAST NEBRASKA

CITY           SKY/WX    TMP DP  RH WIND       PRES   REMARKS
LINCOLN        PTSUNNY   57  38  48 N8        30.21F
OMAHA EPPLEY   MOSUNNY   53  39  59 N7        30.22R
BEATRICE       CLOUDY    52  38  59 NE7       30.20R
FALLS CITY     CLOUDY    54  38  54 CALM      30.19R
NEBRASKA CITY  PTSUNNY   53  32  46 N7        30.20R
PLATTSMOUTH    MOSUNNY   55  31  40 N6        30.21S
$$

NEZ044-045-051>053-067-271600-
OMAHA AREA

CITY           SKY/WX    TMP DP  RH WIND       PRES   REMARKS
OMAHA EPPLEY   MOSUNNY   53  39  59 N7        30.22R
BLAIR          SUNNY     55  33  44 N5        30.21S
FREMONT        SUNNY     56  38  49 N3        30.22S
OFFUTT AFB     SUNNY     56  37  50 NE7       30.21R
PLATTSMOUTH    MOSUNNY   55  31  40 N6        30.21S
WAHOO          FAIR      57  37  46 N7        30.22S
$$


USA.gov is the U.S. government's official web portal to all federal, state and local government web resources and services.